Weather History for Piney Island, NC

Change the Weather History Date:

Friday, October 26, 2012

  Actual Average (KMRH) Record (KMRH)
Temperature  
Mean Temperature 70 °F -  
Max Temperature 75 °F 73 °F 83 °F (1991)
Min Temperature 64 °F 54 °F 37 °F (1962)
Cooling Degree Days 4    
Growing Degree Days 20 (Base 50)    
Moisture  
Dew Point 66 °F    
Average Humidity 89    
Maximum Humidity 100    
Minimum Humidity 76    
Precipitation  
Precipitation 0.10 in - - ()
Sea Level Pressure  
Sea Level Pressure 29.98 in    
Wind  
Wind Speed 11 mph (NNE)    
Max Wind Speed 20 mph    
Max Gust Speed 26 mph    
Visibility 6 miles    
Events Fog , Rain    
Averages and records for this station are not official NWS values.
T = Trace of Precipitation, MM = Missing Value Source: NWS Daily Summary

Daily Weather History Graph

Daily Weather History Graph

Search for Another Location

Airport:

Trip Planner

Search our weather history database for the weather conditions in past years. The results will help you decide how hot, cold, wet, or windy it might be!

Date:

Astronomy

Oct. 26, 2012 Rise Set
Actual Time 7:21 AM EDT 6:17 PM EDT
Civil Twilight 6:55 AM EDT 6:43 PM EDT
Nautical Twilight 6:26 AM EDT 7:12 PM EDT
Astronomical Twilight 5:56 AM EDT 7:42 PM EDT
Moon 4:27 PM EDT (10/26) 4:21 AM EDT (10/26)
Length of Visible Light 11h 47m
Length of Day
10h 55m
Waxing Gibbous, 91% of the Moon is Illuminated
Oct 26
Waxing Gibbous
Oct 29
Full
Nov 6
Last Quarter
Nov 13
New
Nov 20
First Quarter

Hourly Weather History & Observations

Time (EDT) Temp. Dew Point Humidity Pressure Visibility Wind Dir Wind Speed Gust Speed Precip Events Conditions
12:56 AM 68.0 °F 66.0 °F 93% 30.10 in 6.0 mi NE 8.1 mph - N/A   Clear
1:56 AM 68.0 °F 64.9 °F 90% 30.08 in 5.0 mi NNE 6.9 mph - N/A   Clear
2:56 AM 66.9 °F 64.0 °F 90% 30.05 in 7.0 mi North 8.1 mph - N/A   Clear
3:06 AM 66.2 °F 64.4 °F 94% 30.04 in 5.0 mi North 9.2 mph - N/A   Scattered Clouds
3:56 AM 64.9 °F 63.0 °F 93% 30.04 in 6.0 mi North 8.1 mph - N/A   Clear
4:56 AM 66.0 °F 63.0 °F 90% 30.04 in 6.0 mi North 8.1 mph - N/A   Partly Cloudy
5:56 AM 66.0 °F 63.0 °F 90% 30.04 in 7.0 mi North 9.2 mph - N/A   Clear
6:40 AM 66.2 °F 62.6 °F 88% 30.03 in 5.0 mi North 13.8 mph - N/A   Scattered Clouds
6:49 AM 66.2 °F 64.4 °F 94% 30.03 in 4.0 mi North 12.7 mph - N/A   Mostly Cloudy
6:56 AM 66.0 °F 64.0 °F 93% 30.04 in 1.8 mi North 11.5 mph - N/A   Mostly Cloudy
7:08 AM 66.2 °F 64.4 °F 94% 30.03 in 0.8 mi North 9.2 mph - N/A   Mist
7:45 AM 66.2 °F 64.4 °F 94% 30.02 in 0.5 mi North 10.4 mph - N/A Fog Fog
7:56 AM 66.9 °F 64.9 °F 93% 30.04 in 0.8 mi North 11.5 mph - N/A   Mist
8:06 AM 66.2 °F 66.2 °F 100% 30.02 in 1.2 mi North 9.2 mph - N/A   Overcast
8:41 AM 68.0 °F 66.2 °F 94% 30.03 in 2.5 mi North 12.7 mph - N/A   Overcast
8:53 AM 68.0 °F 66.2 °F 94% 30.03 in 4.0 mi North 10.4 mph - N/A   Overcast
8:56 AM 69.1 °F 66.9 °F 93% 30.05 in 4.0 mi North 11.5 mph - N/A   Overcast
9:18 AM 69.8 °F 66.2 °F 88% 30.03 in 6.0 mi North 10.4 mph - N/A   Partly Cloudy
9:56 AM 73.0 °F 66.9 °F 81% 30.05 in 9.0 mi NNE 13.8 mph - N/A   Clear
10:56 AM 73.9 °F 68.0 °F 82% 30.03 in 10.0 mi NNE 13.8 mph 23.0 mph N/A   Clear
11:56 AM 75.0 °F 68.0 °F 79% 30.02 in 10.0 mi NNE 17.3 mph - N/A   Clear
12:56 PM 73.9 °F 66.0 °F 76% 29.99 in 10.0 mi NNE 17.3 mph 26.5 mph N/A   Clear
1:56 PM 73.9 °F 68.0 °F 82% 29.97 in 10.0 mi NNE 17.3 mph 26.5 mph N/A   Scattered Clouds
2:56 PM 72.0 °F 68.0 °F 87% 29.95 in 2.0 mi NE 17.3 mph 24.2 mph 0.03 in Rain Light Rain
3:04 PM 71.6 °F 69.8 °F 94% 29.93 in 1.8 mi NE 19.6 mph 25.3 mph 0.03 in Rain Light Rain
3:07 PM 71.6 °F 69.8 °F 94% 29.92 in 2.0 mi NNE 18.4 mph 26.5 mph 0.03 in Rain Light Rain
3:21 PM 71.6 °F 69.8 °F 94% 29.91 in 4.0 mi NNE 16.1 mph 26.5 mph 0.04 in   Overcast
3:48 PM 71.6 °F 69.8 °F 94% 29.92 in 10.0 mi NNE 16.1 mph - 0.04 in   Mostly Cloudy
3:56 PM 71.1 °F 68.0 °F 90% 29.94 in 10.0 mi NNE 12.7 mph - 0.04 in   Overcast
4:56 PM 71.1 °F 66.9 °F 87% 29.91 in 10.0 mi North 17.3 mph 25.3 mph N/A   Overcast
5:20 PM 71.6 °F 66.2 °F 83% 29.89 in 10.0 mi North 19.6 mph 25.3 mph N/A   Partly Cloudy
5:56 PM 71.1 °F 68.0 °F 90% 29.91 in 3.0 mi NNE 15.0 mph 25.3 mph 0.03 in Rain Light Rain
6:56 PM 70.0 °F 66.9 °F 90% 29.91 in 10.0 mi NNE 13.8 mph 23.0 mph 0.00 in   Clear
7:56 PM 71.1 °F 66.9 °F 87% 29.90 in 10.0 mi NNE 13.8 mph - N/A   Clear
8:56 PM 71.1 °F 66.9 °F 87% 29.89 in 10.0 mi NNE 16.1 mph - N/A   Clear
9:56 PM 72.0 °F 66.9 °F 84% 29.87 in 10.0 mi NNE 15.0 mph - N/A   Scattered Clouds
10:56 PM 72.0 °F 66.0 °F 81% 29.86 in 10.0 mi NNE 16.1 mph - N/A   Clear
11:56 PM 72.0 °F 66.9 °F 84% 29.84 in 10.0 mi NNE 15.0 mph - N/A   Clear